contact:dominique.lefevre@mio.osupytheas.fr, maurice.libes@osupytheas.fr, didier.mallarino@osupytheas.fr
Project:EMSO http://www.emso-fr.org/EMSO-France
Depth: 2436.0 m
Title:EMSO Ligure Ouest : Data MII capteur AQUADOPP
Date,Latitude,Longitude,X_East,Y_North,Z_Up,Amplitude_X,Amplitude_Y,Amplitude_Z,Batterie,SoundSpeed,Heading,Pitch,Roll,Pressure,TIS,Speed,Direction
, degrees North, degrees East, m.s-1, m.s-1,m.s-1, 1, 1, 1, Volt, m.s-1, degree, degree, degree, dbar, degree_C, m.s-1, degree
2021-01-27T00:04:03,42.805,6.029,-0.046,-0.003,-0.02,107.0,108.0,103.0,13.4,1505.2,324.2,-0.7,1.8,2470.377,13.3,0.046,266.3
2021-01-27T00:07:03,42.805,6.029,-0.065,-0.002,0.003,107.0,107.0,103.0,13.3,1505.3,324.6,-0.7,1.8,2470.373,13.31,0.065,268.2
2021-01-27T00:10:03,42.805,6.029,-0.06,-0.01,0.03,106.0,107.0,102.0,13.3,1505.3,324.7,-0.7,1.8,2470.353,13.31,0.06,260.5
2021-01-27T00:13:03,42.805,6.029,-0.043,-0.023,-0.023,106.0,108.0,103.0,13.4,1505.3,325.4,-0.7,1.8,2470.351,13.32,0.048,241.9
2021-01-27T00:16:03,42.805,6.029,-0.075,0.01,-0.019,106.0,108.0,103.0,13.4,1505.3,327.8,-0.7,1.8,2470.355,13.32,0.075,277.6
2021-01-27T00:19:03,42.805,6.029,-0.081,-0.02,-0.006,107.0,107.0,103.0,13.3,1505.3,326.4,-0.7,1.8,2470.311,13.32,0.083,256.1
2021-01-27T00:22:03,42.805,6.029,-0.075,0.0,-0.036,106.0,108.0,103.0,13.4,1505.3,324.9,-0.7,1.8,2470.297,13.32,0.074,270.0
2021-01-27T00:25:03,42.805,6.029,-0.087,-0.001,0.01,107.0,108.0,104.0,13.4,1505.3,327.8,-0.7,1.8,2470.35,13.32,0.087,269.3
2021-01-27T00:28:03,42.805,6.029,-0.019,0.0,-0.001,106.0,111.0,103.0,13.3,1505.3,325.2,-0.7,1.9,2470.332,13.32,0.019,270.0
2021-01-27T00:31:03,42.805,6.029,-0.059,-0.006,-0.016,108.0,108.0,105.0,13.3,1505.3,327.0,-0.7,1.8,2470.293,13.32,0.059,264.2
2021-01-27T00:34:03,42.805,6.029,-0.061,0.0,0.001,106.0,107.0,104.0,13.4,1505.3,323.3,-0.7,1.9,2470.317,13.32,0.06,270.0
2021-01-27T00:37:03,42.805,6.029,-0.042,0.018,-0.02,106.0,109.0,102.0,13.3,1505.3,324.5,-0.7,1.8,2470.345,13.32,0.045,293.2
2021-01-27T00:40:03,42.805,6.029,-0.074,0.017,-0.018,105.0,108.0,104.0,13.3,1505.3,324.7,-0.7,1.8,2470.302,13.32,0.075,282.9
2021-01-27T00:43:03,42.805,6.029,-0.049,0.0,0.026,106.0,108.0,104.0,13.3,1505.3,326.8,-0.7,1.8,2470.319,13.32,0.049,270.0
2021-01-27T00:46:03,42.805,6.029,-0.053,0.0,0.0,106.0,107.0,102.0,13.3,1505.3,323.8,-0.7,1.8,2470.296,13.32,0.053,270.0
2021-01-27T00:49:03,42.805,6.029,-0.043,0.024,0.033,107.0,109.0,102.0,13.4,1505.3,327.3,-0.7,1.8,2470.305,13.32,0.049,299.2
2021-01-27T00:52:03,42.805,6.029,-0.06,-0.007,0.021,107.0,107.0,105.0,13.3,1505.3,322.9,-0.7,1.8,2470.309,13.32,0.06,263.3
2021-01-27T00:55:03,42.805,6.029,-0.07,-0.012,-0.023,106.0,108.0,103.0,13.4,1505.3,325.2,-0.7,1.8,2470.315,13.32,0.071,260.3
2021-01-27T00:58:03,42.805,6.029,-0.076,0.006,-0.024,106.0,109.0,104.0,13.4,1505.3,327.6,-0.7,1.8,2470.308,13.32,0.076,274.5
2021-01-27T01:04:03,42.805,6.029,-0.081,-0.02,-0.018,108.0,110.0,104.0,13.3,1505.2,326.3,-0.7,1.8,2470.402,13.3,0.083,256.1
2021-01-27T01:07:03,42.805,6.029,-0.069,-0.006,0.003,108.0,110.0,104.0,13.4,1505.3,325.5,-0.7,1.8,2470.343,13.31,0.069,265.0
2021-01-27T01:10:03,42.805,6.029,-0.048,0.0,0.004,106.0,109.0,103.0,13.3,1505.3,327.2,-0.7,1.9,2470.316,13.32,0.048,270.0
2021-01-27T01:13:03,42.805,6.029,-0.071,0.004,0.013,106.0,108.0,102.0,13.4,1505.3,326.0,-0.7,1.8,2470.328,13.32,0.071,273.2
2021-01-27T01:16:03,42.805,6.029,-0.06,0.008,0.002,107.0,107.0,102.0,13.4,1505.3,325.5,-0.7,1.9,2470.311,13.32,0.06,277.6
2021-01-27T01:19:03,42.805,6.029,-0.061,0.002,0.012,106.0,109.0,102.0,13.3,1505.3,327.5,-0.7,1.8,2470.289,13.32,0.061,271.9
2021-01-27T01:22:03,42.805,6.029,-0.063,0.002,-0.001,106.0,108.0,104.0,13.4,1505.3,323.3,-0.7,1.8,2470.348,13.32,0.063,271.8
2021-01-27T01:25:03,42.805,6.029,-0.08,-0.01,0.033,106.0,108.0,102.0,13.4,1505.3,325.3,-0.7,1.8,2470.351,13.32,0.08,262.9
2021-01-27T01:28:03,42.805,6.029,-0.085,-0.004,-0.005,107.0,108.0,103.0,13.4,1505.3,324.1,-0.7,1.8,2470.355,13.32,0.085,267.3
2021-01-27T01:31:03,42.805,6.029,-0.055,0.029,-0.011,106.0,109.0,102.0,13.4,1505.3,324.0,-0.7,1.8,2470.307,13.32,0.062,297.8
2021-01-27T01:34:03,42.805,6.029,-0.046,0.005,-0.028,107.0,109.0,103.0,13.4,1505.3,324.2,-0.7,1.8,2470.336,13.32,0.046,276.2
2021-01-27T01:37:03,42.805,6.029,-0.043,0.014,0.008,108.0,107.0,102.0,13.4,1505.3,324.1,-0.7,1.8,2470.296,13.32,0.045,288.0
2021-01-27T01:40:03,42.805,6.029,-0.065,-0.009,0.003,106.0,108.0,102.0,13.4,1505.3,324.3,-0.7,1.8,2470.319,13.32,0.065,262.1
2021-01-27T01:43:03,42.805,6.029,-0.076,0.028,-0.021,105.0,109.0,102.0,13.3,1505.3,325.2,-0.7,1.8,2470.342,13.32,0.08,290.2
2021-01-27T01:46:03,42.805,6.029,-0.067,-0.017,0.002,106.0,108.0,102.0,13.4,1505.3,323.8,-0.7,1.8,2470.341,13.32,0.069,255.8
2021-01-27T01:49:03,42.805,6.029,-0.069,0.001,0.002,107.0,109.0,102.0,13.4,1505.3,324.1,-0.7,1.8,2470.308,13.32,0.069,270.8
2021-01-27T01:52:03,42.805,6.029,-0.067,0.01,-0.011,106.0,109.0,102.0,13.4,1505.3,325.3,-0.7,1.9,2470.338,13.32,0.067,278.5
2021-01-27T01:55:03,42.805,6.029,-0.072,0.016,0.005,106.0,108.0,102.0,13.4,1505.3,325.2,-0.7,1.8,2470.305,13.32,0.073,282.5
2021-01-27T01:58:03,42.805,6.029,-0.057,-0.006,-0.017,106.0,108.0,103.0,13.4,1505.3,325.1,-0.7,1.8,2470.325,13.32,0.057,264.0
2021-01-27T02:04:03,42.805,6.029,-0.052,-0.01,-0.007,107.0,107.0,103.0,13.4,1505.2,327.5,-0.7,1.8,2470.393,13.3,0.052,259.1
2021-01-27T02:07:03,42.805,6.029,-0.059,0.004,-0.002,107.0,108.0,102.0,13.4,1505.3,328.0,-0.7,1.8,2470.358,13.31,0.059,273.9
2021-01-27T02:10:03,42.805,6.029,-0.066,-0.003,0.012,106.0,109.0,102.0,13.4,1505.3,325.4,-0.7,1.9,2470.38,13.31,0.066,267.4
2021-01-27T02:13:03,42.805,6.029,-0.083,0.015,0.0,106.0,108.0,104.0,13.3,1505.3,325.1,-0.7,1.8,2470.334,13.32,0.084,280.2
2021-01-27T02:16:03,42.805,6.029,-0.079,0.017,-0.041,106.0,108.0,103.0,13.4,1505.3,324.5,-0.7,1.8,2470.353,13.32,0.08,282.1
2021-01-27T02:19:03,42.805,6.029,-0.074,0.015,0.023,107.0,111.0,102.0,13.3,1505.3,324.8,-0.7,1.8,2470.363,13.32,0.075,281.5
2021-01-27T02:22:03,42.805,6.029,-0.067,0.014,-0.004,106.0,110.0,103.0,13.4,1505.3,324.3,-0.7,1.8,2470.361,13.32,0.068,281.8
2021-01-27T02:25:03,42.805,6.029,-0.053,0.006,-0.002,107.0,109.0,104.0,13.4,1505.3,327.2,-0.7,1.8,2470.326,13.32,0.053,276.5
2021-01-27T02:28:03,42.805,6.029,-0.082,0.008,-0.003,105.0,110.0,102.0,13.4,1505.3,326.6,-0.7,1.9,2470.348,13.32,0.082,275.6
2021-01-27T02:31:03,42.805,6.029,-0.065,0.005,0.021,107.0,108.0,103.0,13.4,1505.3,327.8,-0.7,1.8,2470.372,13.32,0.065,274.4
2021-01-27T02:34:03,42.805,6.029,-0.103,0.0,-0.002,108.0,109.0,103.0,13.4,1505.3,326.0,-0.7,1.8,2470.354,13.32,0.103,270.0
2021-01-27T02:37:03,42.805,6.029,-0.051,0.0,0.012,107.0,108.0,104.0,13.3,1505.3,323.9,-0.7,1.8,2470.304,13.32,0.051,270.0
2021-01-27T02:40:03,42.805,6.029,-0.049,-0.001,0.051,106.0,109.0,103.0,13.3,1505.3,326.8,-0.7,1.9,2470.362,13.32,0.049,268.8
2021-01-27T02:43:03,42.805,6.029,-0.066,0.02,0.038,106.0,110.0,103.0,13.4,1505.3,326.9,-0.7,1.8,2470.36,13.32,0.068,286.9
2021-01-27T02:46:03,42.805,6.029,-0.069,0.007,0.012,106.0,109.0,104.0,13.4,1505.3,326.2,-0.7,1.8,2470.398,13.32,0.069,275.8
2021-01-27T02:49:03,42.805,6.029,-0.065,0.009,0.023,106.0,111.0,103.0,13.4,1505.3,326.4,-0.7,1.8,2470.404,13.32,0.065,277.9
2021-01-27T02:52:03,42.805,6.029,-0.068,0.0,-0.027,108.0,109.0,103.0,13.3,1505.3,326.6,-0.7,1.8,2470.386,13.32,0.067,270.0
2021-01-27T02:55:03,42.805,6.029,-0.076,0.006,0.006,106.0,110.0,102.0,13.4,1505.3,324.0,-0.7,1.8,2470.397,13.32,0.076,274.5
2021-01-27T02:58:03,42.805,6.029,-0.065,0.009,0.013,105.0,110.0,104.0,13.3,1505.3,326.6,-0.7,1.8,2470.371,13.32,0.065,277.9
2021-01-27T03:04:03,42.805,6.029,-0.072,0.0,0.013,106.0,110.0,103.0,13.4,1505.2,323.2,-0.7,1.8,2470.45,13.3,0.071,270.0
2021-01-27T03:07:03,42.805,6.029,-0.077,0.021,-0.026,106.0,110.0,103.0,13.3,1505.3,324.1,-0.7,1.8,2470.423,13.31,0.079,285.3
2021-01-27T03:10:03,42.805,6.029,-0.074,0.005,0.018,106.0,110.0,102.0,13.4,1505.3,324.3,-0.7,1.8,2470.462,13.32,0.074,273.9
2021-01-27T03:13:03,42.805,6.029,-0.075,0.007,-0.019,106.0,110.0,103.0,13.4,1505.3,327.6,-0.7,1.8,2470.43,13.32,0.075,275.3
2021-01-27T03:16:03,42.805,6.029,-0.053,0.022,-0.008,106.0,108.0,103.0,13.4,1505.3,324.2,-0.7,1.8,2470.412,13.32,0.057,292.5
2021-01-27T03:19:03,42.805,6.029,-0.089,0.015,-0.007,106.0,110.0,102.0,13.4,1505.3,324.5,-0.7,1.9,2470.406,13.32,0.09,279.6
2021-01-27T03:22:03,42.805,6.029,-0.048,0.001,0.038,106.0,111.0,102.0,13.3,1505.3,328.6,-0.7,1.8,2470.436,13.32,0.048,271.2
2021-01-27T03:25:03,42.805,6.029,-0.085,0.016,0.007,107.0,110.0,103.0,13.4,1505.3,327.8,-0.7,1.8,2470.418,13.32,0.086,280.7
2021-01-27T03:28:03,42.805,6.029,-0.086,0.013,-0.011,107.0,112.0,102.0,13.3,1505.3,323.2,-0.7,1.8,2470.445,13.32,0.086,278.6
2021-01-27T03:31:03,42.805,6.029,-0.067,0.032,0.013,106.0,110.0,104.0,13.4,1505.3,324.6,-0.7,1.8,2470.417,13.32,0.074,295.5
2021-01-27T03:34:03,42.805,6.029,-0.058,0.015,0.015,107.0,109.0,103.0,13.4,1505.3,324.6,-0.7,1.8,2470.462,13.32,0.059,284.5
2021-01-27T03:37:03,42.805,6.029,-0.072,0.022,-0.001,106.0,112.0,102.0,13.3,1505.3,328.7,-0.7,1.8,2470.413,13.32,0.075,287.0
2021-01-27T03:40:03,42.805,6.029,-0.077,0.005,0.009,106.0,111.0,103.0,13.4,1505.3,325.3,-0.7,1.8,2470.401,13.32,0.077,273.7
2021-01-27T03:43:03,42.805,6.029,-0.088,0.004,0.004,106.0,110.0,103.0,13.4,1505.3,322.9,-0.7,1.8,2470.423,13.32,0.088,272.6
2021-01-27T03:46:03,42.805,6.029,-0.055,0.018,0.003,106.0,110.0,103.0,13.3,1505.3,323.5,-0.7,1.8,2470.465,13.32,0.057,288.1
2021-01-27T03:49:03,42.805,6.029,-0.06,0.017,0.025,105.0,110.0,103.0,13.4,1505.3,326.0,-0.7,1.8,2470.457,13.32,0.062,285.8
2021-01-27T03:52:03,42.805,6.029,-0.081,0.01,-0.019,107.0,110.0,103.0,13.4,1505.3,326.3,-0.7,1.8,2470.475,13.32,0.081,277.0
2021-01-27T03:55:03,42.805,6.029,-0.092,0.012,-0.001,106.0,110.0,103.0,13.3,1505.3,327.5,-0.7,1.8,2470.452,13.32,0.092,277.4
2021-01-27T03:58:03,42.805,6.029,-0.1,0.024,-0.013,107.0,110.0,103.0,13.4,1505.3,327.7,-0.7,1.8,2470.447,13.32,0.102,283.5
2021-01-27T04:04:03,42.805,6.029,-0.071,0.017,0.0,106.0,110.0,103.0,13.4,1505.2,327.7,-0.7,1.8,2470.464,13.3,0.073,283.5
2021-01-27T04:07:03,42.805,6.029,-0.058,0.017,-0.014,106.0,111.0,103.0,13.4,1505.3,328.1,-0.7,1.9,2470.491,13.31,0.06,286.3
2021-01-27T04:10:03,42.805,6.029,-0.058,0.006,0.0,106.0,111.0,103.0,13.3,1505.3,327.4,-0.7,1.8,2470.52,13.32,0.058,275.9
2021-01-27T04:13:03,42.805,6.029,-0.063,0.017,0.006,107.0,110.0,104.0,13.4,1505.3,327.8,-0.7,1.8,2470.517,13.32,0.065,285.1
2021-01-27T04:16:03,42.805,6.029,-0.088,0.006,-0.041,107.0,110.0,103.0,13.4,1505.3,322.8,-0.7,1.8,2470.446,13.32,0.088,273.9
2021-01-27T04:19:03,42.805,6.029,-0.053,0.026,-0.011,106.0,112.0,103.0,13.3,1505.3,326.9,-0.7,1.9,2470.499,13.32,0.059,296.1
2021-01-27T04:22:03,42.805,6.029,-0.048,0.006,0.0,107.0,111.0,102.0,13.4,1505.3,327.6,-0.7,1.8,2470.52,13.32,0.048,277.1
2021-01-27T04:25:03,42.805,6.029,-0.064,0.026,-0.008,108.0,111.0,103.0,13.4,1505.3,327.0,-0.7,1.9,2470.51,13.32,0.069,292.1
2021-01-27T04:28:03,42.805,6.029,-0.059,0.013,0.044,106.0,112.0,104.0,13.4,1505.3,326.9,-0.7,1.8,2470.477,13.32,0.06,282.4
2021-01-27T04:31:03,42.805,6.029,-0.068,0.039,0.029,106.0,112.0,103.0,13.4,1505.3,325.6,-0.7,1.8,2470.526,13.32,0.078,299.8
2021-01-27T04:34:03,42.805,6.029,-0.058,0.02,0.015,106.0,112.0,103.0,13.4,1505.3,325.1,-0.7,1.8,2470.486,13.32,0.061,289.0
2021-01-27T04:37:03,42.805,6.029,-0.071,0.026,0.016,107.0,112.0,103.0,13.3,1505.3,322.7,-0.7,1.8,2470.496,13.32,0.075,290.1
2021-01-27T04:40:03,42.805,6.029,-0.106,0.026,-0.036,107.0,112.0,102.0,13.3,1505.3,323.7,-0.7,1.8,2470.506,13.32,0.109,283.8
2021-01-27T04:43:03,42.805,6.029,-0.078,0.019,-0.037,107.0,110.0,103.0,13.3,1505.3,324.7,-0.7,1.8,2470.513,13.32,0.08,283.7
2021-01-27T04:46:03,42.805,6.029,-0.071,0.026,-0.019,106.0,110.0,103.0,13.4,1505.3,325.4,-0.7,1.8,2470.501,13.32,0.075,290.1
2021-01-27T04:49:03,42.805,6.029,-0.079,0.018,-0.002,107.0,111.0,103.0,13.4,1505.3,327.3,-0.7,1.8,2470.521,13.32,0.081,282.8
2021-01-27T04:52:03,42.805,6.029,-0.081,0.027,0.042,106.0,111.0,104.0,13.4,1505.3,326.5,-0.7,1.8,2470.501,13.32,0.085,288.4
2021-01-27T04:55:03,42.805,6.029,-0.047,0.012,0.006,106.0,110.0,103.0,13.4,1505.3,326.4,-0.7,1.8,2470.495,13.32,0.048,284.3
2021-01-27T04:58:03,42.805,6.029,-0.057,0.012,0.015,106.0,113.0,103.0,13.4,1505.3,322.6,-0.7,1.8,2470.477,13.32,0.058,281.9
2021-01-27T05:04:03,42.805,6.029,-0.042,0.041,0.024,106.0,112.0,103.0,13.3,1505.2,326.2,-0.7,1.8,2470.568,13.3,0.058,314.3
2021-01-27T05:07:03,42.805,6.029,-0.057,0.022,-0.006,107.0,111.0,103.0,13.4,1505.3,323.8,-0.7,1.8,2470.523,13.31,0.061,291.1
2021-01-27T05:10:03,42.805,6.029,-0.067,0.041,-0.007,105.0,110.0,102.0,13.4,1505.3,324.8,-0.7,1.9,2470.546,13.31,0.078,301.5
2021-01-27T05:13:03,42.805,6.029,-0.057,0.016,-0.011,106.0,111.0,103.0,13.4,1505.3,325.1,-0.7,1.8,2470.527,13.32,0.059,285.7
2021-01-27T05:16:03,42.805,6.029,-0.066,0.015,-0.011,107.0,111.0,103.0,13.4,1505.3,325.1,-0.7,1.9,2470.572,13.32,0.067,282.8
2021-01-27T05:19:03,42.805,6.029,-0.036,0.03,0.042,106.0,112.0,102.0,13.3,1505.3,325.3,-0.7,1.8,2470.543,13.32,0.046,309.8
2021-01-27T05:22:03,42.805,6.029,-0.061,0.021,0.01,107.0,111.0,103.0,13.3,1505.3,326.4,-0.7,1.8,2470.5,13.32,0.064,289.0
2021-01-27T05:25:03,42.805,6.029,-0.058,0.006,0.026,107.0,112.0,102.0,13.4,1505.3,327.4,-0.7,1.8,2470.525,13.32,0.058,275.9
2021-01-27T05:28:03,42.805,6.029,-0.088,0.021,-0.02,107.0,111.0,103.0,13.4,1505.3,326.0,-0.7,1.8,2470.542,13.32,0.09,283.4
2021-01-27T05:31:03,42.805,6.029,-0.07,0.036,0.024,107.0,112.0,102.0,13.4,1505.3,325.8,-0.7,1.8,2470.497,13.32,0.078,297.2
2021-01-27T05:34:03,42.805,6.029,-0.065,0.023,-0.012,107.0,110.0,103.0,13.3,1505.3,324.5,-0.7,1.8,2470.507,13.32,0.068,289.5
2021-01-27T05:37:03,42.805,6.029,-0.051,0.026,-0.014,106.0,112.0,102.0,13.4,1505.3,327.8,-0.7,1.8,2470.543,13.32,0.057,297.0
2021-01-27T05:40:03,42.805,6.029,-0.055,0.005,0.014,107.0,112.0,103.0,13.4,1505.3,325.2,-0.7,1.9,2470.551,13.32,0.055,275.2
2021-01-27T05:43:03,42.805,6.029,-0.038,0.012,-0.004,107.0,112.0,105.0,13.3,1505.3,323.4,-0.7,1.9,2470.536,13.32,0.039,287.5
2021-01-27T05:46:03,42.805,6.029,-0.084,0.024,-0.021,106.0,112.0,103.0,13.4,1505.3,325.6,-0.7,1.8,2470.491,13.32,0.087,285.9
2021-01-27T05:49:03,42.805,6.029,-0.079,0.016,-0.013,106.0,111.0,103.0,13.4,1505.3,325.2,-0.7,1.8,2470.51,13.32,0.08,281.4
2021-01-27T05:52:03,42.805,6.029,-0.043,0.008,0.009,107.0,111.0,103.0,13.3,1505.3,327.3,-0.7,1.8,2470.55,13.32,0.043,280.5
2021-01-27T05:55:03,42.805,6.029,-0.051,0.017,0.032,106.0,111.0,104.0,13.4,1505.3,325.6,-0.7,1.8,2470.573,13.33,0.053,288.4
2021-01-27T05:58:03,42.805,6.029,-0.035,0.017,0.041,107.0,113.0,103.0,13.4,1505.3,325.4,-0.7,1.8,2470.522,13.32,0.038,295.9
2021-01-27T06:04:03,42.805,6.029,-0.065,-0.017,-0.02,107.0,111.0,103.0,13.3,1505.3,325.4,-0.7,1.8,2470.57,13.31,0.067,255.3
2021-01-27T06:07:03,42.805,6.029,-0.062,0.011,-0.048,106.0,111.0,103.0,13.3,1505.3,324.1,-0.7,1.8,2470.568,13.31,0.062,280.1
2021-01-27T06:10:03,42.805,6.029,-0.05,0.006,-0.005,106.0,111.0,103.0,13.4,1505.3,328.4,-0.7,1.8,2470.535,13.32,0.05,276.8
2021-01-27T06:13:03,42.805,6.029,-0.058,-0.004,0.022,106.0,111.0,104.0,13.4,1505.3,323.2,-0.6,1.8,2470.571,13.32,0.058,266.1
2021-01-27T06:16:03,42.805,6.029,-0.044,0.018,-0.013,107.0,113.0,103.0,13.4,1505.3,326.7,-0.7,1.8,2470.572,13.32,0.047,292.2
2021-01-27T06:19:03,42.805,6.029,-0.059,0.024,-0.013,106.0,113.0,104.0,13.4,1505.3,324.1,-0.7,1.8,2470.519,13.32,0.063,292.1
2021-01-27T06:22:03,42.805,6.029,-0.048,0.029,-0.008,107.0,111.0,103.0,13.3,1505.3,327.5,-0.7,1.8,2470.577,13.32,0.056,301.1
2021-01-27T06:25:03,42.805,6.029,-0.077,0.005,-0.009,107.0,112.0,105.0,13.4,1505.3,324.7,-0.7,1.8,2470.58,13.32,0.077,273.7
2021-01-27T06:28:03,42.805,6.029,-0.05,0.027,0.001,107.0,112.0,103.0,13.4,1505.3,324.8,-0.7,1.8,2470.518,13.32,0.056,298.4
2021-01-27T06:31:03,42.805,6.029,-0.028,0.013,0.026,105.0,114.0,103.0,13.4,1505.3,328.2,-0.8,1.8,2470.602,13.32,0.03,294.9
2021-01-27T06:34:03,42.805,6.029,-0.051,0.017,0.017,106.0,114.0,104.0,13.3,1505.3,327.5,-0.7,1.8,2470.575,13.32,0.053,288.4
2021-01-27T06:37:03,42.805,6.029,-0.043,0.023,0.004,107.0,115.0,103.0,13.4,1505.3,326.0,-0.7,1.8,2470.53,13.32,0.048,298.1
2021-01-27T06:40:03,42.805,6.029,-0.044,0.01,0.01,107.0,112.0,105.0,13.3,1505.3,327.0,-0.7,1.9,2470.56,13.32,0.045,282.8
2021-01-27T06:43:03,42.805,6.029,-0.061,0.027,0.0,105.0,112.0,102.0,13.4,1505.3,326.8,-0.7,1.8,2470.578,13.32,0.066,293.9
2021-01-27T06:46:03,42.805,6.029,-0.019,0.015,-0.005,107.0,111.0,103.0,13.4,1505.3,326.3,-0.7,1.8,2470.552,13.32,0.024,308.3
2021-01-27T06:49:03,42.805,6.029,-0.083,0.006,0.008,107.0,111.0,103.0,13.3,1505.3,327.1,-0.7,1.8,2470.556,13.32,0.083,274.1
2021-01-27T06:52:03,42.805,6.029,-0.077,0.013,-0.038,105.0,111.0,103.0,13.4,1505.3,325.2,-0.7,1.8,2470.558,13.32,0.078,279.6
2021-01-27T06:55:03,42.805,6.029,-0.077,0.027,0.004,105.0,113.0,103.0,13.4,1505.3,323.1,-0.7,1.8,2470.549,13.32,0.081,289.3
2021-01-27T06:58:03,42.805,6.029,-0.038,0.01,0.036,106.0,112.0,102.0,13.4,1505.3,326.8,-0.7,1.8,2470.566,13.32,0.039,284.7
2021-01-27T07:04:03,42.805,6.029,-0.058,0.025,0.002,106.0,113.0,104.0,13.3,1505.2,326.7,-0.7,1.8,2470.617,13.3,0.063,293.3
2021-01-27T07:07:03,42.805,6.029,-0.05,0.023,-0.001,106.0,114.0,102.0,13.3,1505.3,326.1,-0.7,1.8,2470.62,13.31,0.055,294.7
2021-01-27T07:10:03,42.805,6.029,-0.048,0.01,-0.009,106.0,115.0,104.0,13.3,1505.3,323.9,-0.7,1.8,2470.604,13.32,0.049,281.8
2021-01-27T07:13:03,42.805,6.029,-0.04,0.021,-0.012,107.0,114.0,101.0,13.4,1505.3,327.0,-0.7,1.8,2470.616,13.32,0.045,297.7
2021-01-27T07:16:03,42.805,6.029,-0.06,0.011,0.002,108.0,113.0,102.0,13.4,1505.3,325.5,-0.6,1.8,2470.555,13.32,0.06,280.4
2021-01-27T07:19:03,42.805,6.029,-0.068,0.011,-0.024,107.0,114.0,103.0,13.4,1505.3,324.7,-0.7,1.8,2470.567,13.32,0.068,279.2
2021-01-27T07:22:03,42.805,6.029,-0.03,0.032,0.007,108.0,116.0,102.0,13.3,1505.3,326.7,-0.7,1.8,2470.561,13.32,0.043,316.9
2021-01-27T07:25:03,42.805,6.029,-0.078,0.033,-0.005,106.0,113.0,103.0,13.4,1505.3,324.7,-0.7,1.9,2470.605,13.32,0.084,292.9
2021-01-27T07:28:03,42.805,6.029,-0.03,0.032,-0.009,107.0,113.0,104.0,13.4,1505.3,325.7,-0.7,1.8,2470.579,13.33,0.043,316.9
2021-01-27T07:31:03,42.805,6.029,-0.065,0.025,0.005,106.0,113.0,104.0,13.3,1505.3,326.0,-0.8,1.8,2470.571,13.32,0.069,291.0
2021-01-27T07:34:03,42.805,6.029,-0.043,0.018,0.013,108.0,112.0,104.0,13.4,1505.3,326.1,-0.7,1.8,2470.568,13.33,0.046,292.7
2021-01-27T07:37:03,42.805,6.029,-0.06,0.02,0.027,106.0,111.0,104.0,13.3,1505.3,326.2,-0.7,1.8,2470.554,13.33,0.063,288.4
2021-01-27T07:40:03,42.805,6.029,-0.022,0.024,0.003,109.0,113.0,102.0,13.4,1505.3,326.5,-0.7,1.8,2470.538,13.32,0.032,317.5
2021-01-27T07:43:03,42.805,6.029,-0.044,0.011,0.017,107.0,111.0,103.0,13.4,1505.3,325.6,-0.7,1.8,2470.554,13.32,0.045,284.0
2021-01-27T07:46:03,42.805,6.029,-0.06,0.03,-0.036,106.0,112.0,103.0,13.3,1505.3,326.3,-0.7,1.8,2470.532,13.33,0.067,296.6
2021-01-27T07:49:03,42.805,6.029,-0.06,0.009,-0.018,106.0,113.0,103.0,13.4,1505.3,323.7,-0.7,1.8,2470.543,13.33,0.06,278.5
2021-01-27T07:52:03,42.805,6.029,-0.045,0.021,0.021,107.0,114.0,103.0,13.3,1505.3,326.7,-0.7,1.8,2470.548,13.32,0.049,295.0
2021-01-27T07:55:03,42.805,6.029,-0.057,-0.007,-0.041,107.0,112.0,103.0,13.3,1505.3,324.3,-0.7,1.9,2470.542,13.32,0.057,263.0
2021-01-27T07:58:03,42.805,6.029,-0.049,0.009,0.019,107.0,112.0,103.0,13.4,1505.3,325.3,-0.7,1.9,2470.536,13.33,0.049,280.4
2021-01-27T08:04:03,42.805,6.029,-0.035,0.005,0.024,107.0,115.0,103.0,13.4,1505.2,326.4,-0.7,1.8,2470.596,13.3,0.035,278.1
2021-01-27T08:07:03,42.805,6.029,-0.04,0.001,0.007,106.0,114.0,104.0,13.4,1505.3,327.7,-0.7,1.8,2470.565,13.31,0.04,271.4
2021-01-27T08:10:03,42.805,6.029,-0.057,0.01,-0.021,107.0,110.0,103.0,13.3,1505.3,327.4,-0.7,1.8,2470.557,13.32,0.057,279.9
2021-01-27T08:13:03,42.805,6.029,-0.055,0.004,0.024,107.0,113.0,103.0,13.3,1505.3,323.0,-0.7,1.9,2470.558,13.32,0.055,274.2
2021-01-27T08:16:03,42.805,6.029,-0.09,0.004,-0.062,106.0,115.0,104.0,13.3,1505.3,326.5,-0.7,1.8,2470.548,13.32,0.09,272.5
2021-01-27T08:19:03,42.805,6.029,-0.05,0.017,-0.018,107.0,112.0,105.0,13.3,1505.3,326.8,-0.7,1.8,2470.554,13.32,0.052,288.8
2021-01-27T08:22:03,42.805,6.029,-0.047,0.001,-0.019,108.0,112.0,102.0,13.3,1505.3,323.6,-0.7,1.8,2470.553,13.32,0.047,271.2
2021-01-27T08:25:03,42.805,6.029,-0.042,0.02,0.043,106.0,114.0,103.0,13.4,1505.3,325.9,-0.7,1.8,2470.568,13.32,0.046,295.5
2021-01-27T08:28:03,42.805,6.029,-0.034,0.014,-0.016,107.0,113.0,103.0,13.3,1505.3,326.4,-0.7,1.8,2470.547,13.32,0.036,292.4
2021-01-27T08:31:03,42.805,6.029,-0.071,0.013,-0.018,107.0,113.0,103.0,13.3,1505.3,325.9,-0.7,1.9,2470.541,13.32,0.072,280.4
2021-01-27T08:34:03,42.805,6.029,-0.03,0.009,0.023,108.0,114.0,103.0,13.3,1505.3,326.8,-0.7,1.8,2470.55,13.32,0.031,286.7
2021-01-27T08:37:03,42.805,6.029,-0.043,-0.004,-0.012,108.0,110.0,103.0,13.4,1505.3,326.5,-0.7,1.8,2470.563,13.32,0.043,264.7
2021-01-27T08:40:03,42.805,6.029,-0.054,-0.008,-0.018,107.0,112.0,103.0,13.4,1505.3,325.1,-0.7,1.8,2470.529,13.33,0.054,261.6
2021-01-27T08:43:03,42.805,6.029,-0.049,0.014,0.001,106.0,111.0,103.0,13.3,1505.3,326.6,-0.7,1.9,2470.534,13.33,0.05,285.9
2021-01-27T08:46:03,42.805,6.029,-0.05,0.031,0.009,106.0,112.0,104.0,13.3,1505.3,326.7,-0.6,1.8,2470.564,13.33,0.058,301.8
2021-01-27T08:49:03,42.805,6.029,-0.041,0.012,-0.027,107.0,112.0,103.0,13.4,1505.3,323.1,-0.7,1.8,2470.56,13.33,0.042,286.3
2021-01-27T08:52:03,42.805,6.029,-0.082,0.011,-0.015,107.0,111.0,103.0,13.4,1505.3,323.5,-0.7,1.8,2470.521,13.32,0.082,277.6
2021-01-27T08:55:03,42.805,6.029,-0.044,-0.014,0.001,106.0,111.0,103.0,13.4,1505.3,325.8,-0.7,1.8,2470.567,13.32,0.046,252.4
2021-01-27T08:58:03,42.805,6.029,-0.046,0.019,-0.008,108.0,111.0,105.0,13.4,1505.3,323.4,-0.7,1.8,2470.556,13.32,0.049,292.4
2021-01-27T09:04:03,42.805,6.029,-0.035,0.019,-0.006,105.0,112.0,104.0,13.4,1505.3,326.6,-0.8,1.8,2470.583,13.31,0.039,298.5
2021-01-27T09:07:03,42.805,6.029,-0.074,0.007,-0.01,106.0,111.0,103.0,13.4,1505.3,326.4,-0.7,1.8,2470.591,13.31,0.074,275.4
2021-01-27T09:10:03,42.805,6.029,-0.061,0.005,0.005,105.0,111.0,102.0,13.4,1505.3,322.9,-0.7,1.8,2470.545,13.32,0.061,274.7
2021-01-27T09:13:03,42.805,6.029,-0.068,0.014,-0.008,105.0,111.0,103.0,13.4,1505.3,325.9,-0.7,1.8,2470.551,13.32,0.069,281.6
2021-01-27T09:16:03,42.805,6.029,-0.055,0.009,-0.037,106.0,111.0,104.0,13.4,1505.3,324.9,-0.7,1.8,2470.569,13.32,0.055,279.3
2021-01-27T09:19:03,42.805,6.029,-0.037,0.019,-0.02,107.0,111.0,102.0,13.3,1505.3,327.9,-0.7,1.8,2470.556,13.32,0.041,297.2
2021-01-27T09:22:03,42.805,6.029,-0.045,-0.006,-0.029,106.0,111.0,103.0,13.3,1505.3,322.8,-0.7,1.8,2470.532,13.32,0.045,262.4
2021-01-27T09:25:03,42.805,6.029,-0.022,0.014,0.033,105.0,110.0,103.0,13.4,1505.3,326.1,-0.7,1.8,2470.545,13.33,0.026,302.5
2021-01-27T09:28:03,42.805,6.029,-0.019,0.025,-0.002,106.0,110.0,102.0,13.4,1505.3,326.2,-0.7,1.8,2470.544,13.32,0.031,322.8
2021-01-27T09:31:03,42.805,6.029,-0.026,0.012,-0.008,106.0,111.0,103.0,13.4,1505.3,323.5,-0.7,1.9,2470.558,13.33,0.028,294.8
2021-01-27T09:34:03,42.805,6.029,-0.042,0.0,0.014,107.0,111.0,104.0,13.4,1505.3,324.8,-0.7,1.8,2470.536,13.33,0.042,270.0
2021-01-27T09:37:03,42.805,6.029,-0.042,-0.003,-0.002,107.0,112.0,104.0,13.4,1505.3,324.7,-0.7,1.8,2470.538,13.33,0.042,265.9
2021-01-27T09:40:03,42.805,6.029,-0.036,0.009,-0.013,107.0,111.0,103.0,13.4,1505.3,327.1,-0.7,1.8,2470.535,13.33,0.037,284.0
2021-01-27T09:43:03,42.805,6.029,-0.055,0.022,-0.029,106.0,111.0,101.0,13.4,1505.3,328.2,-0.7,1.8,2470.508,13.33,0.059,291.8
2021-01-27T09:46:03,42.805,6.029,-0.036,0.013,-0.006,107.0,111.0,101.0,13.3,1505.3,325.5,-0.6,1.8,2470.538,13.33,0.038,289.9
2021-01-27T09:49:03,42.805,6.029,-0.052,0.015,0.005,105.0,110.0,102.0,13.4,1505.3,325.2,-0.7,1.8,2470.474,13.33,0.054,286.1
2021-01-27T09:52:03,42.805,6.029,-0.075,0.01,0.005,103.0,111.0,103.0,13.3,1505.3,322.6,-0.7,1.8,2470.543,13.33,0.075,277.6
2021-01-27T09:55:03,42.805,6.029,-0.046,0.015,0.043,105.0,110.0,102.0,13.4,1505.3,324.4,-0.7,1.8,2470.509,13.33,0.048,288.1